Wind_Speed
17 19 21 21 22 25 26 26 26 25 26 26 26 26 27 27 27 28 29 30 31 33 35 35 35 36 37 38 39 39 39 39 39 39 39 38 38 38 39 39 39 37 36 36
17 18 20 21 22 23 24 25 24 23 23 24 25 26 27 28 28 28 28 29 30 31 33 35 35 35 35 36 37 38 39 39 39 39 39 39 39 39 40 40 39 39 38 37
17 18 19 20 21 22 22 24 24 24 24 24 25 26 26 27 28 28 28 28 29 30 32 34 35 35 35 35 36 37 38 39 40 40 39 39 38 39 39 39 39 38 38 37
17 18 18 19 20 21 22 22 22 23 24 25 25 25 27 26 27 27 27 27 28 29 31 32 34 35 35 36 36 36 37 37 38 38 38 38 38 37 38 38 38 38 38 37
18 18 18 18 20 21 21 21 21 21 22 23 25 25 26 27 27 28 28 28 28 29 30 31 33 34 35 35 35 36 37 36 37 37 37 37 38 37 37 37 37 37 37 37
18 18 17 17 19 21 22 22 21 21 22 23 24 25 25 26 27 28 29 29 28 29 29 30 31 33 33 34 34 35 35 36 36 36 36 36 37 36 36 36 36 36 36 36
17 18 17 18 19 20 22 21 21 22 22 23 24 25 26 26 27 28 28 29 29 29 30 30 30 31 32 32 33 34 35 35 35 35 35 35 35 36 36 36 36 36 36 36
16 17 17 18 19 20 20 21 21 21 22 23 24 25 25 26 27 28 28 29 30 30 31 31 30 31 31 32 33 33 34 34 34 34 34 34 34 34 35 35 35 35 35 36
17 17 18 18 19 19 19 20 20 21 22 23 24 24 24 25 26 27 28 29 30 30 30 31 31 32 32 32 32 32 33 33 33 34 33 33 33 34 34 34 34 34 34 34
17 18 18 19 19 19 19 20 20 21 22 23 23 24 25 25 26 26 26 27 29 30 30 30 31 31 32 32 31 31 32 32 33 33 33 33 33 33 34 34 35 35 34 34
17 17 18 18 19 19 19 20 20 20 21 22 22 22 23 24 24 25 26 27 28 29 30 30 31 31 31 32 32 31 31 32 32 32 32 32 32 32 32 33 33 34 34 33
16 16 17 17 18 18 18 19 19 19 20 21 22 22 22 22 23 24 25 25 27 29 30 31 31 31 31 31 31 31 31 31 31 31 31 31 31 32 32 32 32 32 32 32
15 15 15 16 17 18 18 18 18 18 18 19 20 21 21 21 21 22 23 24 25 27 29 30 31 31 31 31 31 31 31 31 31 31 31 30 30 31 31 31 31 30 30 30
14 14 14 15 16 17 18 19 19 19 18 18 19 20 21 21 21 21 22 23 23 25 27 28 29 30 30 30 30 30 30 31 31 31 31 30 30 30 30 30 29 29 29 28
14 13 13 14 15 16 17 18 18 18 18 17 17 18 20 21 21 22 22 22 23 23 24 26 28 28 29 30 30 30 29 29 30 30 30 29 29 29 28 28 29 29 28 27
13 13 13 14 15 16 16 16 17 17 17 16 17 18 19 20 20 21 22 22 23 23 23 25 27 28 29 30 30 29 29 29 29 29 29 28 28 28 27 27 27 27 26 26
12 13 13 13 14 15 15 15 16 16 16 17 17 18 19 19 20 20 21 22 22 23 23 24 25 27 28 29 29 28 28 28 28 28 28 28 28 27 27 26 25 25 24 24
13 14 14 15 14 15 16 16 16 17 17 17 17 18 18 19 19 20 21 22 23 23 24 25 25 26 27 27 28 28 28 28 28 28 27 27 27 26 26 25 25 24 24 24
15 15 15 16 15 16 16 16 17 17 18 17 17 17 18 18 19 20 20 21 22 22 23 24 24 25 26 26 27 28 28 27 27 27 27 27 27 26 26 26 25 25 25 24
16 16 17 17 16 16 16 17 17 17 17 18 18 18 18 19 20 20 21 21 22 21 21 22 23 24 25 26 26 27 27 27 27 27 27 26 25 25 25 25 25 25 24 23
17 17 18 18 17 17 17 16 16 16 16 16 17 17 18 19 19 20 21 21 22 22 22 22 22 22 23 25 26 27 27 27 27 27 27 26 25 25 25 24 24 24 23 23
17 18 18 17 17 16 16 16 16 16 16 16 16 16 17 17 18 19 19 20 21 21 20 20 20 21 21 23 24 25 25 26 26 25 25 25 25 25 24 23 23 22 22 22
18 18 17 16 16 16 16 16 16 16 16 16 16 16 16 16 17 17 18 19 19 19 19 19 19 20 20 21 22 23 23 24 24 24 24 25 25 25 24 23 22 22 22 21
17 16 15 15 15 15 15 16 16 15 15 15 15 15 16 16 15 16 16 17 18 19 19 18 18 18 19 19 20 21 22 22 22 23 23 24 24 24 24 23 22 21 21 20
16 15 15 14 14 14 15 15 15 14 14 14 14 14 15 15 15 15 15 16 17 18 18 18 18 18 18 19 19 20 21 21 22 22 22 22 23 23 22 22 21 20 20 20
16 16 16 15 15 14 14 14 14 14 14 14 13 13 13 13 14 14 14 15 16 17 17 18 18 18 18 18 19 19 20 21 21 22 22 22 22 22 21 21 20 20 19 19
16 16 15 15 15 14 14 13 13 14 14 14 13 13 13 13 13 13 14 14 15 16 17 17 17 17 17 18 18 18 19 20 20 21 21 21 21 21 21 20 20 19 18 18
Wind_Direction
253 246 242 238 235 236 237 237 238 240 241 242 243 243 242 241 240 241 241 239 238 238 236 235 235 236 236 237 238 238 239 240 241 243 245 246 248 249 250 252 253 255 257 259
255 249 245 241 236 237 237 235 239 239 241 242 241 242 242 243 242 242 241 239 238 237 235 234 234 235 236 238 239 239 239 240 242 243 245 247 248 249 251 252 254 255 257 259
258 254 248 242 239 238 237 237 242 243 242 243 241 240 241 241 241 242 242 239 239 237 235 234 234 235 236 239 240 240 240 241 243 244 245 247 248 249 250 252 253 254 255 258
259 254 251 245 240 239 240 242 244 245 244 244 243 242 242 242 240 240 240 240 239 237 235 235 235 235 236 239 241 240 241 241 241 242 245 247 248 249 250 252 253 254 256 259
258 255 251 246 245 244 243 242 246 248 247 244 243 242 242 241 240 239 239 240 240 239 238 237 237 238 239 240 242 242 241 242 242 243 244 247 248 248 250 251 252 254 257 259
258 255 255 252 251 248 247 247 249 250 250 248 245 243 242 243 242 242 241 240 240 241 240 240 240 240 241 241 242 242 242 242 242 242 244 246 248 248 248 250 251 254 256 259
257 256 257 256 255 252 251 252 253 253 251 250 250 249 247 247 246 245 244 242 242 242 241 242 241 241 241 241 242 243 242 241 241 241 243 245 246 247 248 249 251 253 256 259
264 260 257 258 257 255 254 255 256 254 253 253 252 250 249 249 249 248 246 244 243 243 243 241 240 240 240 242 242 242 242 241 241 241 242 244 245 247 249 250 251 254 256 259
269 265 259 258 259 257 253 254 257 258 256 255 253 251 249 249 249 250 249 246 245 243 242 242 241 241 242 242 242 242 241 240 240 241 242 244 246 247 249 251 252 254 256 259
271 265 261 259 258 256 254 254 256 258 259 257 255 252 251 250 248 248 248 246 244 242 241 240 241 241 241 240 239 240 241 240 240 241 243 245 246 248 250 251 253 255 257 259
272 268 264 260 257 254 253 254 258 261 261 258 255 253 253 253 250 247 246 245 243 241 239 239 240 240 240 239 238 239 240 241 241 242 243 245 247 249 251 252 255 257 259 261
274 270 266 261 257 254 255 257 261 262 261 258 255 253 253 252 250 248 246 244 242 240 239 239 239 239 239 239 239 239 240 242 243 244 246 247 248 250 252 255 257 259 261 263
277 273 269 262 256 254 256 260 263 264 261 257 255 254 252 251 250 247 245 244 242 239 238 237 238 238 239 239 239 240 241 243 244 245 247 248 249 251 253 254 256 259 261 263
275 271 267 262 258 258 261 263 264 263 262 259 255 253 251 249 248 246 245 243 240 238 237 236 236 237 237 237 238 240 242 242 243 245 247 249 251 252 253 254 255 257 260 263
271 267 265 263 261 261 264 266 266 265 263 261 258 255 252 250 248 247 246 243 241 239 237 236 237 238 238 238 239 240 241 242 242 244 246 249 250 251 252 253 254 257 259 261
273 269 269 268 267 266 267 268 267 263 261 260 260 258 255 251 250 248 247 245 243 241 240 238 239 240 241 240 240 241 241 241 242 243 245 247 249 251 252 253 253 255 257 259
279 273 271 272 272 272 272 271 267 264 262 261 261 259 255 252 251 250 248 245 244 243 241 241 242 243 243 242 242 242 242 243 242 244 245 247 248 249 250 252 252 252 254 256
283 278 273 274 275 277 277 275 271 266 264 265 263 261 256 253 251 251 249 246 244 245 245 244 244 245 244 243 243 242 242 242 242 243 243 244 245 246 247 250 251 252 253 255
283 281 279 276 277 278 276 274 273 269 266 265 263 261 257 253 251 250 249 246 245 247 248 247 246 246 245 244 243 241 240 240 241 241 241 242 244 244 246 248 250 252 253 254
281 281 280 279 279 278 275 274 273 271 270 267 263 260 258 255 252 251 249 248 247 247 248 248 248 247 245 243 241 241 240 238 238 239 240 240 241 243 244 245 247 249 251 252
282 281 280 280 278 276 275 274 273 273 273 270 267 263 260 257 255 254 251 249 249 249 250 249 248 247 246 243 240 239 238 237 237 239 239 239 241 242 243 245 247 248 248 249
283 282 281 280 277 275 275 276 275 275 275 273 270 267 264 260 257 255 252 250 250 250 251 250 248 248 247 243 239 236 236 237 237 238 238 239 239 240 241 244 245 246 246 248
283 283 282 280 279 277 277 277 277 277 276 274 272 269 266 262 259 256 253 250 249 249 249 250 249 247 246 243 239 236 236 236 237 238 238 238 238 238 240 241 241 242 245 248
283 281 281 282 281 280 279 279 278 278 277 275 272 270 267 263 259 257 253 250 249 248 247 247 246 246 244 242 239 236 235 235 236 236 237 236 235 235 235 236 237 239 242 246
283 281 281 282 283 283 281 279 277 276 277 275 274 272 267 262 260 259 255 251 249 248 247 246 245 245 243 241 239 237 236 236 235 235 235 233 232 230 230 232 233 237 241 245
281 280 279 279 281 282 281 280 277 275 275 274 273 272 268 263 262 261 258 254 250 249 248 247 245 244 243 240 238 237 236 235 233 232 231 230 228 229 230 232 235 237 240 243
281 280 277 276 278 279 279 279 278 276 275 274 272 271 268 265 263 262 259 257 255 251 248 246 244 241 239 237 236 234 233 233 231 228 226 224 225 227 229 231 234 236 239 242
Height
5554 5555 5556 5558 5560 5562 5564 5567 5569 5573 5575 5577 5579 5581 5583 5585 5588 5591 5593 5596 5599 5602 5606 5609 5613 5617 5621 5625 5629 5632 5636 5640 5644 5647 5650 5653 5655 5658 5660 5663 5665 5667 5668 5670
5550 5550 5551 5553 5555 5556 5559 5561 5563 5566 5569 5570 5572 5574 5576 5578 5581 5583 5586 5589 5591 5594 5597 5601 5605 5609 5612 5616 5620 5623 5627 5631 5634 5638 5641 5643 5646 5648 5651 5653 5656 5658 5659 5660
5545 5545 5546 5548 5550 5551 5553 5555 5557 5560 5563 5564 5566 5567 5569 5571 5573 5576 5579 5581 5584 5587 5590 5593 5597 5600 5604 5607 5611 5614 5618 5621 5625 5628 5631 5634 5636 5639 5642 5644 5646 5648 5649 5651
5540 5541 5542 5545 5544 5545 5547 5549 5551 5553 5555 5557 5558 5560 5562 5564 5566 5569 5571 5574 5576 5579 5582 5585 5589 5592 5595 5599 5602 5605 5609 5612 5615 5618 5622 5624 5627 5629 5632 5634 5636 5638 5640 5641
5535 5535 5536 5539 5539 5540 5542 5544 5545 5546 5548 5549 5551 5553 5555 5557 5559 5561 5564 5566 5569 5572 5575 5577 5580 5583 5587 5590 5593 5596 5599 5603 5606 5609 5612 5615 5617 5620 5622 5625 5627 5629 5631 5632
5530 5530 5531 5534 5534 5534 5536 5538 5539 5540 5541 5543 5544 5547 5549 5550 5552 5554 5556 5559 5561 5564 5567 5569 5572 5575 5578 5581 5584 5587 5591 5594 5597 5600 5602 5605 5608 5610 5613 5615 5617 5619 5621 5622
5525 5525 5526 5527 5527 5528 5531 5533 5533 5533 5535 5536 5537 5539 5541 5542 5544 5546 5548 5551 5553 5556 5559 5561 5564 5567 5570 5572 5576 5578 5581 5584 5588 5590 5593 5596 5598 5601 5603 5606 5608 5610 5612 5613
5520 5520 5523 5521 5522 5523 5525 5525 5526 5527 5528 5529 5530 5531 5532 5534 5536 5538 5540 5543 5545 5547 5550 5553 5556 5559 5561 5564 5567 5569 5572 5576 5579 5582 5585 5587 5590 5592 5594 5596 5598 5600 5602 5603
5515 5517 5516 5515 5516 5517 5518 5519 5519 5520 5521 5522 5523 5524 5525 5527 5528 5530 5532 5534 5536 5539 5542 5544 5547 5550 5553 5555 5558 5561 5563 5567 5570 5573 5576 5578 5581 5583 5585 5587 5590 5591 5593 5594
5509 5509 5509 5509 5510 5510 5511 5512 5513 5513 5514 5514 5515 5517 5518 5519 5521 5522 5524 5526 5528 5531 5533 5536 5539 5541 5544 5547 5550 5552 5555 5558 5561 5564 5567 5570 5572 5575 5577 5579 5581 5582 5584 5585
5503 5503 5503 5504 5504 5505 5505 5506 5506 5506 5507 5507 5508 5509 5510 5512 5513 5514 5516 5518 5520 5522 5525 5528 5530 5533 5536 5539 5541 5544 5547 5550 5553 5556 5559 5562 5564 5566 5568 5570 5572 5574 5575 5576
5498 5498 5498 5498 5498 5499 5499 5500 5500 5500 5500 5500 5501 5502 5503 5504 5505 5507 5509 5510 5512 5515 5517 5520 5522 5525 5528 5531 5533 5536 5539 5542 5545 5548 5551 5553 5556 5558 5559 5562 5563 5564 5566 5567
5493 5492 5492 5492 5492 5493 5493 5494 5494 5494 5494 5494 5495 5495 5497 5497 5498 5500 5501 5503 5505 5507 5509 5512 5515 5517 5520 5523 5526 5529 5531 5534 5537 5540 5542 5545 5547 5550 5552 5553 5554 5556 5557 5558
5487 5487 5487 5487 5487 5487 5487 5488 5488 5488 5488 5488 5488 5489 5490 5491 5492 5493 5495 5496 5498 5500 5502 5504 5507 5510 5512 5515 5518 5521 5523 5526 5529 5532 5535 5537 5539 5542 5544 5545 5547 5548 5549 5550
5482 5482 5482 5482 5482 5482 5482 5482 5482 5482 5482 5482 5482 5483 5483 5484 5486 5487 5488 5490 5492 5493 5495 5497 5500 5503 5505 5508 5510 5513 5516 5518 5521 5524 5527 5529 5532 5534 5535 5537 5539 5540 5541 5542
5477 5477 5477 5477 5477 5477 5477 5476 5476 5476 5476 5476 5476 5477 5477 5478 5479 5480 5482 5483 5485 5487 5489 5491 5493 5495 5498 5500 5503 5505 5508 5511 5514 5516 5519 5522 5524 5526 5528 5529 5531 5532 5534 5535
5473 5472 5472 5472 5472 5471 5471 5471 5470 5470 5470 5471 5471 5471 5471 5472 5473 5474 5475 5477 5478 5480 5482 5484 5486 5488 5490 5493 5495 5498 5500 5503 5506 5509 5511 5514 5516 5518 5520 5522 5524 5525 5526 5528
5468 5467 5467 5467 5466 5466 5466 5465 5465 5465 5465 5464 5464 5464 5465 5465 5466 5467 5468 5470 5472 5473 5475 5477 5479 5481 5483 5485 5488 5490 5492 5495 5498 5501 5503 5506 5508 5511 5513 5515 5517 5518 5520 5521
5463 5462 5462 5461 5461 5460 5460 5460 5459 5459 5458 5458 5458 5458 5458 5459 5460 5461 5462 5463 5465 5466 5468 5469 5471 5473 5475 5477 5480 5482 5484 5487 5490 5493 5495 5498 5501 5503 5505 5507 5509 5511 5513 5514
5458 5457 5456 5456 5455 5455 5454 5454 5453 5453 5452 5452 5451 5451 5452 5452 5453 5454 5455 5457 5458 5459 5461 5462 5464 5465 5467 5469 5471 5474 5476 5479 5482 5485 5488 5490 5493 5496 5498 5500 5502 5504 5505 5507
5452 5452 5451 5450 5449 5449 5448 5448 5447 5447 5446 5445 5445 5445 5445 5446 5446 5447 5448 5450 5451 5453 5454 5455 5456 5458 5459 5461 5463 5466 5469 5471 5474 5477 5480 5483 5486 5488 5491 5493 5495 5497 5498 5500
5447 5446 5445 5444 5443 5443 5442 5442 5441 5441 5440 5439 5439 5439 5439 5439 5440 5441 5442 5443 5444 5445 5447 5448 5449 5451 5452 5454 5456 5458 5461 5464 5467 5470 5473 5476 5479 5481 5484 5486 5488 5490 5492 5493
5441 5440 5439 5438 5437 5437 5436 5436 5435 5435 5434 5434 5433 5433 5433 5433 5434 5434 5435 5436 5438 5439 5440 5442 5443 5444 5446 5447 5449 5452 5454 5457 5460 5463 5466 5468 5471 5474 5477 5479 5481 5483 5485 5487
5435 5434 5433 5432 5432 5431 5431 5430 5429 5429 5428 5428 5428 5427 5427 5428 5428 5428 5429 5430 5431 5433 5434 5435 5437 5438 5440 5441 5443 5446 5448 5451 5453 5456 5459 5461 5464 5467 5470 5472 5474 5476 5479 5480
5429 5428 5428 5427 5426 5426 5425 5424 5424 5424 5423 5423 5422 5422 5422 5422 5423 5423 5423 5424 5426 5427 5428 5429 5431 5432 5434 5436 5438 5440 5442 5444 5447 5450 5452 5455 5458 5461 5463 5466 5468 5471 5473 5474
5423 5423 5422 5422 5421 5420 5420 5419 5419 5419 5418 5418 5418 5418 5417 5417 5417 5418 5418 5419 5420 5421 5422 5424 5425 5426 5428 5430 5432 5434 5436 5439 5441 5444 5446 5449 5452 5455 5458 5460 5463 5465 5467 5468
5418 5417 5416 5416 5416 5415 5415 5414 5414 5414 5413 5413 5413 5413 5413 5413 5413 5413 5413 5414 5415 5416 5417 5418 5419 5421 5422 5424 5426 5428 5430 5433 5435 5438 5441 5444 5447 5450 5452 5455 5457 5459 5461 5463